Wind_Speed
17 17 14 11 8 6 6 6 6 7 7 8 9 11 12 7 14 18 11 20 21 18 15 13 15 21 24 22 20 19 15 11
18 18 17 15 11 9 9 8 7 7 8 9 11 13 12 6 16 14 22 18 17 14 12 13 15 20 22 21 17 18 16 14
21 20 20 18 15 12 12 10 9 8 9 10 12 13 14 10 13 9 17 19 17 14 13 15 17 19 21 18 16 18 19 17
21 21 22 20 19 16 14 13 11 10 10 11 12 13 13 12 13 10 19 20 16 15 16 18 21 19 20 19 19 17 17 16
21 21 21 22 22 20 18 16 15 14 13 12 12 14 15 15 16 15 21 22 20 20 18 19 23 23 22 24 20 17 15 15
21 21 22 22 23 23 21 19 18 17 16 15 14 15 18 17 20 20 24 24 24 20 19 20 23 24 22 24 22 19 19 19
21 21 22 22 23 23 23 21 20 18 17 16 16 16 18 19 19 21 26 26 25 21 18 21 22 23 23 25 22 21 20 18
29 25 22 22 24 24 24 23 21 20 18 16 17 18 18 18 19 24 26 25 24 21 19 20 21 22 24 23 22 21 18 17
36 32 27 25 24 24 25 25 23 22 21 19 19 20 20 17 21 26 27 23 23 21 22 20 20 22 21 24 22 17 20 20
31 31 32 29 28 26 27 27 26 25 26 24 23 22 22 19 24 29 27 24 22 24 25 25 23 24 23 25 22 19 19 15
37 38 37 35 32 28 29 29 30 31 30 28 26 25 23 22 26 29 30 28 25 26 28 26 24 24 26 25 22 21 20 16
43 42 41 39 33 30 29 29 30 32 32 32 29 28 24 24 28 30 33 31 28 28 30 29 25 26 29 26 22 23 21 18
43 43 44 42 38 34 31 31 32 35 35 28 25 28 27 25 26 30 33 32 30 31 32 30 30 29 33 29 22 24 23 21
40 36 42 42 39 35 31 29 31 31 33 27 27 29 29 28 27 29 32 32 31 33 33 32 31 34 35 32 26 21 26 25
27 29 36 39 39 36 34 29 29 31 31 30 30 29 30 28 28 29 32 33 32 35 35 35 37 38 36 31 19 14 32 27
24 30 33 34 34 38 35 36 36 38 35 36 31 30 28 28 27 28 31 36 36 36 37 36 38 43 40 40 35 28 38 28
27 30 32 30 32 33 35 35 36 37 33 29 30 32 31 29 29 31 32 37 37 36 38 38 38 43 43 45 38 20 36 32
29 30 27 29 30 33 35 34 33 32 31 29 30 28 26 29 29 30 31 35 37 39 38 37 38 45 46 45 46 33 39 34
26 24 24 24 28 30 34 32 34 34 32 29 30 31 29 29 28 29 34 34 34 37 37 37 38 41 42 51 48 38 33 39
22 23 14 16 20 27 30 28 29 31 28 28 24 25 23 24 25 26 28 34 35 35 36 37 39 42 45 53 50 47 34 35
Wind_Direction
194 202 203 205 205 200 190 174 182 181 176 156 165 165 161 148 147 167 152 149 167 172 176 182 177 166 162 159 157 162 156 171
206 206 207 210 211 206 201 189 189 187 182 168 165 169 171 158 160 166 173 177 175 176 170 187 184 172 172 167 167 165 168 173
217 213 211 213 213 211 206 197 195 194 188 187 177 181 184 187 178 190 182 185 180 178 179 181 184 177 179 177 177 173 173 173
216 215 214 215 215 214 212 205 200 204 199 196 196 190 195 185 195 197 189 179 183 186 183 182 181 189 188 179 178 176 175 185
220 219 215 216 218 215 215 209 205 207 206 203 205 202 195 199 202 195 184 183 186 187 186 188 189 195 194 184 189 184 176 189
230 227 224 218 219 219 217 215 211 212 212 209 208 209 201 202 203 199 195 194 192 190 195 198 199 199 200 194 191 182 182 191
224 229 230 225 218 220 218 218 216 211 214 210 207 206 208 205 212 202 201 201 198 199 202 203 202 200 196 203 191 192 188 192
218 222 228 232 230 221 222 220 218 217 209 213 212 214 211 213 212 205 206 208 207 206 206 204 201 199 198 194 194 193 196 197
221 220 225 229 241 231 223 226 216 217 219 217 222 219 217 216 207 204 207 206 214 210 203 198 197 203 194 188 190 198 188 193
217 224 220 230 236 235 229 221 223 214 220 222 223 221 218 212 205 208 210 208 214 211 201 199 201 201 197 184 191 187 187 191
224 220 225 224 230 232 229 227 220 224 221 228 227 222 217 211 206 208 211 215 219 209 203 203 191 195 194 190 195 196 203 200
237 222 222 223 225 230 224 228 233 231 226 221 226 225 220 213 210 214 214 217 219 210 206 205 208 207 188 190 186 206 212 211
233 218 215 217 216 222 219 224 224 230 235 227 221 221 222 222 217 215 218 218 215 210 207 213 213 206 191 191 191 195 209 209
224 219 216 215 221 223 226 232 234 227 229 226 217 215 221 225 223 218 220 217 214 211 211 206 206 196 194 194 194 188 198 207
217 220 210 215 219 219 220 224 228 223 226 220 218 216 215 222 223 221 220 220 217 216 212 213 203 199 201 191 179 191 185 191
217 210 200 205 215 217 219 229 225 226 226 223 223 223 219 217 223 222 219 219 221 218 217 215 212 204 204 206 197 198 177 185
223 219 214 208 213 225 225 226 228 231 235 228 230 224 222 216 219 220 222 221 223 221 214 215 216 213 210 201 197 203 198 185
213 209 215 213 212 225 228 230 221 231 230 228 225 219 223 221 222 218 222 221 222 225 223 219 218 218 214 207 200 195 199 193
193 195 199 208 213 228 231 232 230 233 226 231 232 234 229 222 220 220 223 223 227 226 225 226 218 221 221 211 208 202 207 206
172 178 184 190 214 234 231 226 229 225 226 231 230 224 223 229 228 231 227 227 226 227 230 227 229 228 236 215 210 205 202 210
Height
1487 1490 1493 1494 1495 1496 1496 1496 1497 1499 1502 1505 1508 1511 1514 1516 1518 1521 1525 1526 1530 1532 1536 1540 1542 1543 1544 1546 1547 1548 1551 1554
1484 1486 1489 1491 1493 1494 1495 1496 1497 1498 1500 1504 1506 1510 1513 1516 1519 1523 1526 1528 1530 1532 1536 1540 1542 1544 1545 1547 1548 1549 1550 1554
1481 1483 1485 1488 1490 1492 1493 1495 1496 1498 1499 1502 1505 1508 1511 1514 1518 1520 1524 1528 1530 1531 1534 1539 1542 1544 1546 1548 1549 1549 1550 1554
1476 1479 1482 1484 1486 1489 1490 1492 1494 1496 1498 1499 1501 1506 1508 1512 1516 1518 1522 1525 1529 1531 1533 1537 1540 1542 1544 1546 1547 1549 1550 1555
1471 1475 1478 1480 1482 1485 1487 1489 1491 1493 1496 1498 1500 1503 1506 1509 1514 1516 1519 1522 1526 1529 1532 1535 1538 1540 1543 1544 1546 1548 1549 1555
1467 1471 1473 1475 1478 1481 1483 1485 1487 1490 1492 1495 1497 1499 1502 1506 1510 1515 1516 1519 1523 1526 1530 1533 1536 1538 1541 1543 1545 1547 1549 1554
1461 1465 1467 1470 1473 1476 1479 1481 1484 1487 1489 1492 1495 1496 1499 1502 1507 1512 1515 1517 1520 1524 1527 1530 1532 1535 1539 1541 1544 1546 1549 1552
1456 1460 1463 1466 1468 1472 1475 1478 1480 1483 1486 1488 1492 1495 1497 1499 1503 1507 1511 1514 1518 1522 1525 1527 1530 1533 1536 1540 1543 1545 1547 1550
1450 1454 1458 1461 1464 1468 1471 1473 1476 1479 1481 1485 1489 1492 1494 1495 1499 1502 1507 1512 1515 1519 1522 1525 1528 1532 1534 1538 1541 1543 1544 1547
1446 1448 1450 1455 1458 1463 1466 1469 1471 1475 1477 1480 1485 1489 1491 1492 1495 1497 1503 1508 1511 1515 1518 1521 1523 1527 1532 1536 1538 1540 1543 1545
1438 1442 1442 1448 1452 1457 1461 1465 1468 1471 1475 1477 1480 1485 1488 1489 1491 1495 1499 1503 1508 1511 1514 1518 1520 1524 1529 1534 1536 1538 1540 1543
1430 1434 1437 1440 1447 1451 1456 1461 1463 1466 1470 1474 1476 1480 1483 1486 1488 1491 1494 1498 1503 1506 1511 1515 1518 1522 1525 1528 1534 1536 1538 1541
1421 1425 1430 1433 1440 1445 1449 1453 1458 1460 1462 1468 1472 1475 1479 1481 1484 1486 1489 1492 1496 1501 1507 1510 1515 1518 1524 1526 1531 1534 1534 1538
1415 1417 1422 1427 1433 1439 1443 1447 1451 1456 1458 1464 1466 1469 1474 1477 1479 1481 1484 1487 1491 1495 1500 1505 1510 1513 1517 1523 1528 1532 1533 1535
1409 1412 1417 1422 1427 1433 1438 1444 1449 1451 1455 1458 1461 1465 1468 1472 1474 1477 1480 1483 1486 1489 1494 1498 1501 1508 1512 1514 1521 1524 1528 1532
1404 1408 1412 1418 1422 1425 1429 1434 1438 1443 1448 1453 1456 1461 1464 1467 1470 1473 1476 1479 1481 1484 1488 1493 1497 1500 1505 1509 1512 1517 1517 1526
1401 1404 1407 1411 1416 1420 1423 1428 1434 1438 1444 1448 1452 1455 1459 1462 1466 1468 1471 1474 1476 1479 1482 1486 1491 1494 1496 1500 1507 1510 1515 1516
1396 1401 1403 1406 1410 1414 1418 1423 1429 1435 1438 1443 1446 1450 1453 1457 1461 1463 1465 1468 1471 1474 1478 1481 1485 1488 1490 1494 1497 1502 1507 1511
1393 1398 1400 1404 1408 1411 1415 1420 1425 1429 1433 1437 1442 1444 1448 1451 1455 1458 1460 1463 1466 1470 1473 1475 1478 1481 1484 1488 1492 1497 1503 1506
1390 1394 1397 1400 1406 1409 1412 1417 1421 1424 1428 1431 1435 1440 1444 1447 1450 1453 1456 1459 1461 1464 1467 1469 1472 1476 1477 1481 1486 1491 1497 1502